• In Netherlands
  • List of Countries
  • For 7 days
  • Water Temperature
  • Satellite Maps
  • Weather Map
  • Weather Widgets
  • user-avatar
    Login

    Hourly Weather Sarafovo

    Today, 20 August, Sunday

    Time Temperature Precipitation Wind Pressure Humidity
    00:00 +23°C° 0 mm 2 mps 758 mmHg 61%
    01:00 +23°C° 0 mm 2 mps 758 mmHg 61%
    02:00 +21°C° 0 mm 2 mps 757 mmHg 61%
    03:00 +21°C° 0 mm 2 mps 757 mmHg 61%
    04:00 +20°C° 0 mm 2 mps 757 mmHg 61%
    05:00 +20°C° 0 mm 2 mps 757 mmHg 61%
    06:00 +22°C° 0 mm 3 mps 757 mmHg 55%
    07:00 +25°C° 0 mm 3 mps 757 mmHg 49%
    08:00 +28°C° 0 mm 3 mps 757 mmHg 40%
    09:00 +29°C° 0 mm 3 mps 757 mmHg 37%
    10:00 +31°C° 0 mm 3 mps 757 mmHg 34%
    11:00 +34°C° 0 mm 4 mps 757 mmHg 31%
    12:00 +35°C° 0 mm 4 mps 756 mmHg 30%
    13:00 +35°C° 0 mm 4 mps 756 mmHg 28%
    14:00 +36°C° 0 mm 4 mps 756 mmHg 27%
    15:00 +36°C° 0 mm 4 mps 755 mmHg 29%
    16:00 +35°C° 0 mm 4 mps 755 mmHg 31%
    17:00 +35°C° 0 mm 4 mps 755 mmHg 34%
    18:00 +31°C° 0 mm 3 mps 755 mmHg 45%
    19:00 +28°C° 0 mm 3 mps 755 mmHg 56%
    20:00 +26°C° 0 mm 2 mps 755 mmHg 68%
    21:00 +25°C° 0 mm 2 mps 755 mmHg 73%
    22:00 +24°C° 0 mm 1 mps 755 mmHg 77%
    23:00 +23°C° 0 mm 1 mps 755 mmHg 82%

    Tomorrow, 21 August, Monday

    Time Temperature Precipitation Wind Pressure Humidity
    00:00 +23°C° 0 mm 1 mps 755 mmHg 84%
    01:00 +23°C° 0 mm 1 mps 755 mmHg 86%
    02:00 +22°C° 0 mm 1 mps 755 mmHg 87%
    03:00 +22°C° 0 mm 1 mps 754 mmHg 87%
    04:00 +22°C° 0 mm 1 mps 754 mmHg 86%
    05:00 +21°C° 0 mm 2 mps 754 mmHg 85%
    06:00 +24°C° 0.1 mm 2 mps 754 mmHg 77%
    07:00 +25°C° 0.1 mm 3 mps 754 mmHg 68%
    08:00 +26°C° 0.1 mm 3 mps 754 mmHg 60%
    09:00 +28°C° 0 mm 3 mps 754 mmHg 54%
    10:00 +29°C° 0 mm 3 mps 754 mmHg 48%
    11:00 +31°C° 0 mm 3 mps 754 mmHg 43%
    12:00 +33°C° 0 mm 3 mps 754 mmHg 41%
    13:00 +33°C° 0 mm 3 mps 754 mmHg 39%
    14:00 +34°C° 0 mm 2 mps 753 mmHg 37%
    15:00 +33°C° 0 mm 3 mps 753 mmHg 38%
    16:00 +33°C° 0 mm 3 mps 753 mmHg 39%
    17:00 +31°C° 0 mm 3 mps 753 mmHg 40%
    18:00 +29°C° 0.1 mm 3 mps 753 mmHg 47%
    19:00 +28°C° 0.1 mm 4 mps 753 mmHg 54%
    20:00 +26°C° 0.1 mm 4 mps 753 mmHg 61%
    21:00 +25°C° 0.3 mm 5 mps 754 mmHg 65%
    22:00 +23°C° 0.3 mm 6 mps 754 mmHg 69%
    23:00 +22°C° 0.3 mm 7 mps 754 mmHg 73%

    Day after tomorrow, 22 August, Tuesday

    Time Temperature Precipitation Wind Pressure Humidity
    00:00 +21°C° 0.1 mm 6 mps 755 mmHg 75%
    01:00 +21°C° 0.1 mm 6 mps 755 mmHg 76%
    02:00 +20°C° 0.1 mm 6 mps 755 mmHg 77%
    03:00 +19°C° 0.2 mm 5 mps 755 mmHg 79%
    04:00 +19°C° 0.2 mm 5 mps 755 mmHg 81%
    05:00 +17°C° 0.2 mm 5 mps 755 mmHg 83%
    06:00 +17°C° 0 mm 5 mps 756 mmHg 80%
    07:00 +19°C° 0 mm 5 mps 756 mmHg 77%
    08:00 +19°C° 0 mm 6 mps 757 mmHg 74%
    09:00 +20°C° 0 mm 6 mps 757 mmHg 68%
    10:00 +21°C° 0 mm 6 mps 757 mmHg 61%
    11:00 +22°C° 0 mm 7 mps 758 mmHg 55%
    12:00 +23°C° 0 mm 6 mps 758 mmHg 51%
    13:00 +23°C° 0 mm 6 mps 757 mmHg 48%
    14:00 +24°C° 0 mm 6 mps 757 mmHg 44%
    15:00 +25°C° 0 mm 5 mps 757 mmHg 42%
    16:00 +26°C° 0 mm 5 mps 757 mmHg 40%
    17:00 +26°C° 0 mm 4 mps 757 mmHg 38%
    18:00 +24°C° 0 mm 3 mps 757 mmHg 44%
    19:00 +22°C° 0 mm 3 mps 757 mmHg 50%
    20:00 +20°C° 0 mm 2 mps 758 mmHg 56%
    21:00 +19°C° 0 mm 2 mps 758 mmHg 57%
    22:00 +19°C° 0 mm 2 mps 758 mmHg 59%
    23:00 +18°C° 0 mm 2 mps 758 mmHg 61%

    23 August, Wednesday

    Time Temperature Precipitation Wind Pressure Humidity
    00:00 +18°C° 0 mm 2 mps 758 mmHg 62%
    01:00 +18°C° 0 mm 2 mps 758 mmHg 62%
    02:00 +17°C° 0 mm 2 mps 758 mmHg 63%
    03:00 +17°C° 0 mm 2 mps 758 mmHg 63%
    04:00 +17°C° 0 mm 2 mps 758 mmHg 63%
    05:00 +17°C° 0 mm 2 mps 758 mmHg 62%
    06:00 +19°C° 0 mm 2 mps 759 mmHg 56%
    07:00 +21°C° 0 mm 2 mps 759 mmHg 49%
    08:00 +24°C° 0 mm 3 mps 759 mmHg 42%
    09:00 +26°C° 0 mm 3 mps 759 mmHg 37%
    10:00 +28°C° 0 mm 3 mps 759 mmHg 31%
    11:00 +30°C° 0 mm 3 mps 759 mmHg 26%
    12:00 +31°C° 0 mm 3 mps 759 mmHg 24%
    13:00 +33°C° 0 mm 3 mps 759 mmHg 22%
    14:00 +33°C° 0 mm 4 mps 759 mmHg 20%
    15:00 +33°C° 0 mm 4 mps 758 mmHg 20%
    16:00 +33°C° 0 mm 4 mps 758 mmHg 20%
    17:00 +32°C° 0 mm 4 mps 758 mmHg 21%
    18:00 +29°C° 0 mm 4 mps 759 mmHg 27%
    19:00 +26°C° 0 mm 3 mps 759 mmHg 33%
    20:00 +24°C° 0 mm 3 mps 759 mmHg 39%
    21:00 +23°C° 0 mm 2 mps 760 mmHg 42%
    22:00 +21°C° 0 mm 2 mps 760 mmHg 45%
    23:00 +21°C° 0 mm 1 mps 760 mmHg 47%

    24 August, Thursday

    Time Temperature Precipitation Wind Pressure Humidity
    00:00 +21°C° 0 mm 1 mps 760 mmHg 49%
    01:00 +20°C° 0 mm 1 mps 760 mmHg 50%
    02:00 +20°C° 0 mm 1 mps 760 mmHg 51%
    03:00 +20°C° 0 mm 1 mps 760 mmHg 52%
    04:00 +19°C° 0 mm 1 mps 761 mmHg 52%
    05:00 +18°C° 0 mm 2 mps 761 mmHg 52%
    06:00 +20°C° 0 mm 2 mps 761 mmHg 47%
    07:00 +23°C° 0 mm 2 mps 761 mmHg 41%
    08:00 +25°C° 0 mm 2 mps 762 mmHg 35%
    09:00 +27°C° 0 mm 2 mps 762 mmHg 31%
    10:00 +29°C° 0 mm 2 mps 762 mmHg 27%
    11:00 +31°C° 0 mm 2 mps 762 mmHg 23%
    12:00 +33°C° 0 mm 3 mps 762 mmHg 23%
    13:00 +33°C° 0 mm 3 mps 762 mmHg 22%
    14:00 +34°C° 0 mm 4 mps 761 mmHg 21%
    15:00 +33°C° 0 mm 4 mps 761 mmHg 24%
    16:00 +32°C° 0 mm 4 mps 761 mmHg 26%
    17:00 +32°C° 0 mm 4 mps 761 mmHg 29%
    18:00 +28°C° 0 mm 4 mps 761 mmHg 39%
    19:00 +26°C° 0 mm 4 mps 762 mmHg 50%
    20:00 +22°C° 0 mm 4 mps 762 mmHg 61%
    21:00 +21°C° 0 mm 3 mps 762 mmHg 67%
    22:00 +21°C° 0 mm 3 mps 762 mmHg 73%
    23:00 +20°C° 0 mm 3 mps 762 mmHg 79%

    25 August, Friday

    Time Temperature Precipitation Wind Pressure Humidity
    00:00 +20°C° 0 mm 2 mps 762 mmHg 81%
    01:00 +19°C° 0 mm 2 mps 762 mmHg 83%
    02:00 +19°C° 0 mm 2 mps 762 mmHg 84%
    03:00 +19°C° 0 mm 2 mps 763 mmHg 85%
    04:00 +19°C° 0 mm 2 mps 763 mmHg 85%
    05:00 +18°C° 0 mm 2 mps 763 mmHg 86%
    06:00 +20°C° 0 mm 3 mps 763 mmHg 76%
    07:00 +22°C° 0 mm 3 mps 763 mmHg 66%
    08:00 +26°C° 0 mm 4 mps 763 mmHg 56%
    09:00 +27°C° 0 mm 4 mps 763 mmHg 48%
    10:00 +29°C° 0 mm 5 mps 763 mmHg 40%
    11:00 +30°C° 0 mm 6 mps 763 mmHg 32%
    12:00 +32°C° 0 mm 6 mps 763 mmHg 31%
    13:00 +32°C° 0 mm 6 mps 763 mmHg 31%
    14:00 +32°C° 0 mm 6 mps 763 mmHg 30%
    15:00 +30°C° 0 mm 6 mps 762 mmHg 33%
    16:00 +29°C° 0 mm 6 mps 762 mmHg 36%
    17:00 +28°C° 0 mm 6 mps 762 mmHg 39%
    18:00 +26°C° 0 mm 6 mps 762 mmHg 48%
    19:00 +23°C° 0 mm 5 mps 763 mmHg 58%
    20:00 +21°C° 0 mm 4 mps 763 mmHg 67%
    21:00 +21°C° 0 mm 4 mps 763 mmHg 71%
    22:00 +20°C° 0 mm 3 mps 763 mmHg 75%
    23:00 +19°C° 0 mm 3 mps 763 mmHg 79%
    Show more